Regional Weather Roundup
Issued by NWS

Home | Current Version | Previous Version | Graphics & Text | Print | Product List | Glossary On
Versions: 1 2 3 4 5 6 7 8 9 10 11 12 13 14 15 16 17 18 19 20 21 22 23 24 25 26 27 28 29 30 31 32 33 34 35 36 37 38 39 40 41 42 43 44 45 46 47 48 49 50
433
ASUS45 KBOI 110410
RWRID

IDAHO REGIONAL WEATHER ROUNDUP
NATIONAL WEATHER SERVICE BOISE ID
900 PM MST WED FEB 10 2016

NOTE: "FAIR" INDICATES FEW OR NO CLOUDS BELOW 12000 FEET
WITH NO SIGNIFICANT WEATHER AND/OR OBSTRUCTIONS TO VISIBILITY

IDZ012-014-110500-
SOUTHWEST IDAHO


CITY           SKY/WX    TMP DP  RH WIND       PRES   REMARKS
BOISE          MOCLDY    34  31  88 W5        30.42F WCI  30
CALDWELL       MOCLDY    33  31  92 CALM      30.44F
$$

IDZ016-017-110500-
SOUTHCENTRAL IDAHO


CITY           SKY/WX    TMP DP  RH WIND       PRES   REMARKS
BURLEY         CLEAR     28  25  88 NW3       30.38R
JEROME         CLEAR     27  22  81 NE13      30.40R WCI  16
TWIN FALLS     CLEAR     30  28  92 S5        30.39S WCI  25
$$

IDZ019>023-110500-
SOUTHEAST IDAHO


CITY           SKY/WX    TMP DP  RH WIND       PRES   REMARKS
IDAHO FALLS    CLOUDY    17  13  84 NE3       30.40R
POCATELLO      CLOUDY    24  22  91 NW7       30.42R WCI  16
REXBURG        CLOUDY    20  16  84 NE5       30.39S WCI  13
$$

IDZ006-010-011-018-031-032-110500-
CENTRAL IDAHO MOUNTAINS


CITY           SKY/WX    TMP DP  RH WIND       PRES   REMARKS
MCCALL         MOCLDY    31  28  89 CALM      30.34F
HAILEY         CLEAR     27  21  80 NW6       30.39F WCI  20
STANLEY          N/A     26  18  71 CALM      30.37S
SALMON         CLOUDY    18  16  93 SE3       30.39R
CHALLIS        CLOUDY    21  16  81 CALM      30.35S
$$

IDZ002-004-006-007-026-110500-
NORTHERN IDAHO


CITY           SKY/WX    TMP DP  RH WIND       PRES   REMARKS
LEWISTON       CLOUDY    50  34  54 S9        30.28F
LOWELL           N/A     41  37  86 CALM      30.33S
COEUR D`ALENE  MOCLDY    37  34  87 CALM      30.23S
MULLAN PASS    CLOUDY    36  28  73 W8G20     30.22F WCI  30
$$




USA.gov is the U.S. government's official web portal to all federal, state and local government web resources and services.